{"data":{"norad_id":69430,"intl_designator":"2026-126L","name":"STARLINK-37866","alt_names":[],"object_type":"PAYLOAD","status":"ACTIVE","operator":null,"country":"US","launch_date":"2026-06-07","launch_site_code":"AFWTR","launch_vehicle":null,"mission":null,"orbit_class":"UNKNOWN","rcs_meters":null,"size_class":null,"mass_kg":null,"dimensions":null,"purposes":["comms"],"wikipedia_slug":null,"has_3d_model":false,"image_url":null,"decayed_at":null,"tle_current":{"epoch":"2026-09-20T02:02:38.874624Z","epoch_age_seconds":61321,"freshness":"FRESH","line1":"1 69430U 26126L   26263.08517216  .00013648  00000+0  42406-3 0  9998","line2":"2 69430  97.2849 124.3713 0001712  92.6485 267.4953 15.33462483 17518","mean_motion":15.33462483,"eccentricity":0.0001712,"inclination_deg":97.2849,"raan_deg":124.3713,"arg_perigee_deg":92.6485,"mean_anomaly_deg":267.4953,"bstar":0.00042406,"rev_number":1751,"period_min":93.905134032549,"perigee_km":464.31952872405,"apogee_km":466.6627870053,"semimajor_km":6843.6281578647,"source":"CELESTRAK","updated_at":"2026-09-20T09:00:44.196213Z"}}}